Location: Ku?niki
(51.4449°N, 17.8974°E)
Time: 17:34:57
(UTC+00:00)

XW-2A - Pass Details

Date: 06 July 2022
Orbit: 396 x 406 km, 97.2° (Epoch: 10 August)

Event Time Altitude Azimuth Distance (km) Brightness Sun altitude
Exits shadow 20:03:29 - 185° (S) 2,060 ? -7.1°
Reaches altitude 10° 20:04:59 10° 193° (SSW) 1,441 ? -7.3°
Maximum altitude 20:07:52 36° 262° (W) 655 ? -7.5°
Drops below altitude 10° 20:10:46 10° 331° (NNW) 1,455 ? -7.8°
Sets 20:12:51 0° 340° (NNW) 2,320 ? -8.0°
